Hourly Data Report for October 10, 2014

All times are specified in Local Standard Time (LST). Add 1 hour to adjust for Daylight Saving Time where and when it is observed.

CLYDE RIVER A
NUNAVUT

70°29'09.000" N
68°31'01.000" W
26.50 m
2400804
71090
YCY

Download Data

Hourly Data (October 2014)
Hourly Data Report for October 10, 2014
Temp Definition
°C
Dew Point Temp Definition
°C
Rel Hum Definition
%
Wind Dir Definition
10's deg

Wind Spd Definition
km/h
Visibility Definition
km
Stn Press Definition
kPa
Hmdx Definition


Wind Chill Definition


Weather Definition


TIME
00:00 Legend Double Dagger -1.8 -5.1 78 3 22 16.1 101.30   -8 Snow
01:00 Legend Double Dagger -1.9 -5.8 75 3 26 16.1 101.25   -8 LegendNANA
02:00 Legend Double Dagger -2.3 -6.0 76 1 26 16.1 101.20   -9 LegendNANA
03:00 Legend Double Dagger -2.2 -5.7 77 36 21 16.1 101.17   -8 LegendNANA
04:00 Legend Double Dagger -2.2 -3.4 91 35 28 8.1 101.07   -9 Snow
05:00 Legend Double Dagger -1.8 -2.4 96 33 30 1.6 100.97   -9 Snow
06:00 Legend Double Dagger -0.6 -1.6 93 2 32 9.7 100.89   -7 Snow
07:00 Legend Double Dagger -0.6 -1.6 93 1 34 6.4 100.77   -8 Snow
08:00 Legend Double Dagger -0.6 -1.0 97 1 37 1.2 100.67   -8 Snow
09:00 Legend Double Dagger -0.2 -0.6 97 1 37 4.0 100.53   -7 Snow
10:00 Legend Double Dagger 0.2 -0.2 97 1 30 1.6 100.46     Snow
11:00 Legend Double Dagger 0.2 -0.1 98 1 24 4.8 100.35     Snow
12:00 Legend Double Dagger 0.3 0.0 98 3 18 4.0 100.29     Snow
13:00 Legend Double Dagger 0.2 -0.1 98 5 15 4.8 100.23     Snow
14:00 Legend Double Dagger 0.2 -0.1 98 7 18 4.8 100.21     Rain,Fog
15:00 Legend Double Dagger 0.5 0.2 98 LegendMM 4 2.4 100.16     Rain,Fog
16:00 Legend Double Dagger 0.9 0.8 99   0 2.0 100.16     Rain,Fog
17:00 Legend Double Dagger 0.8 0.7 99 LegendMM 5 0.8 100.09     Rain,Fog
18:00 Legend Double Dagger 0.9 0.8 99 LegendMM 4 0.8 100.13     Fog
19:00 Legend Double Dagger 1.0 0.9 99   0 0.8 100.11     Rain,Fog
20:00 Legend Double Dagger 0.9 0.8 99 10 21 1.0 100.08     Fog
21:00 Legend Double Dagger 1.0 0.9 99 11 32 1.2 100.03     Rain,Fog
22:00 Legend Double Dagger 0.6 0.5 99 11 35 8.1 100.01     Rain,Fog
23:00 Legend Double Dagger 0.8 0.7 99 11 24 4.8 100.02     Fog

Notes on Data Quality.

Legend

  • E = Estimated
  • M = Missing
  • NA = Not Available
  • ‡ = Partner data that is not subject to review by the National Climate Archives
Date modified: